Meteo Giornale » Osservazioni meteo Svizzera » Meiringen

ore: 10:50 - Osservazioni Meteo Meiringen
Lat. 46° 45' N Lon. 8° 7' E Alt. 577 metri s.l.m.

coperto_pioggia Europe/Zurich

5 °C

Pioviggine Foschia

Temp. 24 Ore

5 °C

15 °C

Ovest/Sud-Ovest

9.3 Km/h

Dew point 5 °C

Umidità 100 %

Visibilità  4 Km

Il sole sorge alle ore 06:58

Il sole tramonta alle ore 18:19

Data e Ora Cielo e Fenomeni T °C DP °C Um. % Pres. hPa Vis. km Vento km/h
Oggi h: 10:50 coperto_pioggia Pioviggine Foschia 5 5 100 1011 4 O/SO 9.3
Oggi h: 10:20 coperto_pioggia Pioviggine 5 5 100 1011 3 O/SO 9.3
Oggi h: 09:50 coperto_pioggia Pioggia Debole Foschia 5 5 100 1010 3 O/SO 7.4
Oggi h: 09:20 coperto Coperto 5 5 100 1010 7 SO 9.3
Oggi h: 08:50 coperto Coperto 5 5 100 1010 8 SO 9.3
Oggi h: 08:20 coperto Coperto 6 5 93 1009 10 N 3.7
Oggi h: 07:50 coperto_pioggia Pioggia Debole 6 5 93 1009 10 N 3.7
Oggi h: 07:20 coperto_pioggia Pioggia Debole 6 5 93 1009 10 N 3.7
Oggi h: 06:50 coperto_pioggia Pioggia Debole 6 5 93 1008 10 N 5.5
Oggi h: 06:20 coperto_pioggia Pioggia Debole 6 5 93 1008 10 N 5.5
Oggi h: 05:50 coperto_pioggia Pioggia Debole 6 5 93 1008 10 O/SO 7.4
Oggi h: 05:20 coperto_pioggia Pioggia Debole 6 4 86 1007 10 SO 7.4
Oggi h: 04:50 coperto_pioggia Pioggia Debole 7 4 81 1007 10 O/SO 11.1
Oggi h: 04:20 coperto Coperto 7 4 81 1007 10 O 11.1
Oggi h: 03:50 coperto Coperto 7 4 81 1006 10 O 11.1
Oggi h: 03:20 coperto Coperto 7 4 81 1006 10 O 7.4
Oggi h: 02:50 coperto Coperto 7 4 81 1006 10 O 11.1
Oggi h: 02:20 coperto Coperto 7 4 81 1006 10 O 7.4
Oggi h: 01:50 coperto Coperto 8 4 75 1005 10 O 9.3
Oggi h: 01:20 coperto Coperto 8 4 75 1005 10 O 9.3
Oggi h: 00:50 coperto Coperto 8 4 75 1005 10 O 7.4
Oggi h: 00:20 coperto Coperto 8 4 75 1004 10 O/SO 11.1
Ieri h: 23:50 molto_nuvoloso Molto Nuvoloso 8 4 75 1004 10 O 11.1
Ieri h: 23:20 molto_nuvoloso Molto Nuvoloso 8 4 75 1003 10 O 13
Ieri h: 22:50 molto_nuvoloso Molto Nuvoloso 8 4 75 1003 10 O 16.7
Ieri h: 22:20 molto_nuvoloso Molto Nuvoloso 8 4 75 1002 10 O 14.8
Ieri h: 21:50 molto_nuvoloso Molto Nuvoloso 9 4 70 1002 10 O/SO 13
Ieri h: 21:20 molto_nuvoloso Molto Nuvoloso 8 4 75 1001 10 O 13
Ieri h: 20:50 molto_nuvoloso Molto Nuvoloso 9 4 70 1001 10 O 16.7
Ieri h: 20:20 nuvoloso Nuvoloso 10 1 53 1000 10 N 3.7
Ieri h: 19:50 molto_nuvoloso Molto Nuvoloso 11 -1 43 999 10 E 16.7
Ieri h: 19:20 poco_nuvoloso Poco Nuvoloso 12 -1 40 998 10 E 35.2
Ieri h: 18:50 poco_nuvoloso Poco Nuvoloso 12 -1 40 998 10 E 37
Ieri h: 18:20 sereno Sereno 12 -1 40 997 10 E 35.2
Ieri h: 17:50 sereno Sereno 12 -1 40 996 10 E 33.3
Ieri h: 17:20 poco_nuvoloso Poco Nuvoloso 12 -1 40 996 10 E 38.8
Ieri h: 16:50 poco_nuvoloso Poco Nuvoloso 12 -1 40 996 10 E 42.6
Ieri h: 16:20 sereno Sereno 13 -0 40 995 10 E 40.7
Ieri h: 15:50 sereno Sereno 14 -0 38 995 10 E/SE 44.4
Ieri h: 15:20 poco_nuvoloso Poco Nuvoloso 14 -1 35 995 10 E/SE 42.6
Ieri h: 14:50 sereno Sereno 14 -0 38 995 10 E/SE 42.6
Ieri h: 14:20 poco_nuvoloso Poco Nuvoloso 14 -0 38 995 10 E 48.1
Ieri h: 13:50 sereno Sereno 14 -1 35 995 10 E/SE 50
Ieri h: 13:20 poco_nuvoloso Poco Nuvoloso 15 -0 35 995 10 E/SE 51.8
Ieri h: 12:50 poco_nuvoloso Poco Nuvoloso 15 -0 35 994 10 E 53.7
Ieri h: 12:20 poco_nuvoloso Poco Nuvoloso 14 0 38 995 10 E/SE 51.8
Ieri h: 11:50 nuvoloso Nuvoloso 14 -1 35 995 10 E/SE 48.1
Ieri h: 11:20 poco_nuvoloso Poco Nuvoloso 15 0 35 995 10 E 55.5
Ieri h: 10:50 nuvoloso Nuvoloso 14 -0 38 995 10 E 51.8